Newton, KS

9:39 PM CST on December 14, 2017 (GMT -0600)
Newton City County

Weather History for KEWK - November, 2012

Change the Weather History Date:

Monday, November 5, 2012

  Actual Average Record
Temperature  
Mean Temperature 44 °F -  
Max Temperature 53 °F 54 °F 77 °F (2015)
Min Temperature 35 °F 37 °F 26 °F (2010)
Degree Days  
Heating Degree Days 21    
Moisture  
Dew Point 33 °F    
Average Humidity 62    
Maximum Humidity 81    
Minimum Humidity 44    
Precipitation  
Precipitation 0.00 in - - ()
Sea Level Pressure  
Sea Level Pressure 30.12 in    
Wind  
Wind Speed 11 mph (North)    
Max Wind Speed 26 mph    
Max Gust Speed 32 mph    
Visibility 10 miles    
Events      
Averages and records for this station are not official NWS values.
T = Trace of Precipitation, MM = Missing Value Source: NWS Daily Summary

Daily Weather History Graph

Daily Weather History Graph

Search for Another Location

Airport or City:

Trip Planner

Search our weather history database for the weather conditions in past years. The results will help you decide how hot, cold, wet, or windy it might be!

Date:

Astronomy

Nov. 05, 2012 Rise Set
Actual Time 6:59 AM CST 5:25 PM CST
Civil Twilight 6:32 AM CST 5:52 PM CST
Nautical Twilight 6:00 AM CST 6:24 PM CST
Astronomical Twilight 5:29 AM CST 6:54 PM CST
Moon 11:03 PM CST (11/5) 12:19 PM CST (11/5)
Length of Visible Light 11h 20m
Length of Day
10h 25m
Waning Gibbous, 62% of the Moon is Illuminated
Nov 5
Waning Gibbous
Nov 6
Last Quarter
Nov 13
New
Nov 20
First Quarter
Nov 28
Full

Hourly Weather History & Observations

Time (CST) Temp. Windchill Dew Point Humidity Pressure Visibility Wind Dir Wind Speed Gust Speed Precip Events Conditions
12:15 AM 51.8 °F - 30.2 °F 44% 30.06 in 10.0 mi West 5.8 mph - N/A   Scattered Clouds
12:35 AM 51.8 °F - 30.2 °F 44% 30.07 in 10.0 mi WNW 8.1 mph - N/A   Partly Cloudy
12:55 AM 51.8 °F - 30.2 °F 44% 30.06 in 10.0 mi WNW 8.1 mph - N/A   Scattered Clouds
1:15 AM 50.0 °F - 30.2 °F 47% 30.07 in 10.0 mi WNW 8.1 mph - N/A   Partly Cloudy
1:35 AM 51.8 °F - 30.2 °F 44% 30.07 in 10.0 mi WNW 8.1 mph - N/A   Clear
1:55 AM 51.8 °F - 33.8 °F 50% 30.07 in 10.0 mi NW 10.4 mph - N/A   Mostly Cloudy
2:15 AM 53.6 °F - 35.6 °F 51% 30.07 in 10.0 mi NNW 12.7 mph - N/A   Overcast
2:35 AM 51.8 °F - 35.6 °F 54% 30.07 in 10.0 mi NNW 12.7 mph - N/A   Mostly Cloudy
2:55 AM 51.8 °F - 35.6 °F 54% 30.07 in 10.0 mi NNW 10.4 mph - N/A   Partly Cloudy
3:15 AM 50.0 °F - 33.8 °F 54% 30.07 in 10.0 mi NNW 6.9 mph - N/A   Clear
3:35 AM 48.2 °F - 33.8 °F 58% 30.07 in 10.0 mi NW 10.4 mph - N/A   Clear
3:55 AM 48.2 °F - 35.6 °F 62% 30.07 in 10.0 mi NW 11.5 mph - N/A   Clear
4:15 AM 48.2 °F - 35.6 °F 62% 30.08 in 10.0 mi NNW 9.2 mph - N/A   Partly Cloudy
4:35 AM 46.4 °F 41.5 °F 33.8 °F 62% 30.08 in 10.0 mi NNW 10.4 mph - N/A   Scattered Clouds
4:55 AM 48.2 °F - 35.6 °F 62% 30.07 in 10.0 mi NNW 10.4 mph - N/A   Mostly Cloudy
5:15 AM 48.2 °F - 33.8 °F 58% 30.08 in 10.0 mi NNW 9.2 mph - N/A   Scattered Clouds
5:35 AM 46.4 °F 41.5 °F 33.8 °F 62% 30.08 in 10.0 mi NW 10.4 mph - N/A   Partly Cloudy
5:55 AM 46.4 °F 41.5 °F 33.8 °F 62% 30.08 in 10.0 mi NNW 10.4 mph - N/A   Partly Cloudy
6:15 AM 46.4 °F 40.7 °F 33.8 °F 62% 30.09 in 10.0 mi NNW 12.7 mph - N/A   Clear
6:35 AM 44.6 °F 38.4 °F 33.8 °F 66% 30.10 in 10.0 mi North 12.7 mph 19.6 mph N/A   Clear
6:55 AM 44.6 °F 37.8 °F 33.8 °F 66% 30.10 in 10.0 mi NNW 15.0 mph 21.9 mph N/A   Clear
7:15 AM 42.8 °F 34.5 °F 33.8 °F 70% 30.11 in 10.0 mi North 18.4 mph 24.2 mph N/A   Partly Cloudy
7:35 AM 42.8 °F 33.8 °F 35.6 °F 76% 30.11 in 10.0 mi NNW 21.9 mph 28.8 mph N/A   Mostly Cloudy
7:55 AM 42.8 °F 34.0 °F 35.6 °F 76% 30.12 in 10.0 mi NNW 20.7 mph 28.8 mph N/A   Overcast
8:15 AM 42.8 °F 35.4 °F 33.8 °F 70% 30.13 in 10.0 mi NNW 15.0 mph 21.9 mph N/A   Overcast
8:35 AM 42.8 °F 34.5 °F 35.6 °F 76% 30.14 in 10.0 mi North 18.4 mph 27.6 mph N/A   Overcast
8:55 AM 44.6 °F 36.9 °F 35.6 °F 71% 30.14 in 10.0 mi North 18.4 mph 26.5 mph N/A   Overcast
9:15 AM 44.6 °F 35.9 °F 33.8 °F 66% 30.14 in 10.0 mi North 23.0 mph 27.6 mph N/A   Overcast
9:35 AM 44.6 °F 35.3 °F 33.8 °F 66% 30.15 in 10.0 mi North 26.5 mph 32.2 mph N/A   Overcast
9:55 AM 46.4 °F 38.5 °F 33.8 °F 62% 30.14 in 10.0 mi North 21.9 mph 27.6 mph N/A   Overcast
10:15 AM 46.4 °F 38.3 °F 33.8 °F 62% 30.15 in 10.0 mi North 23.0 mph 31.1 mph N/A   Overcast
10:35 AM 46.4 °F 39.0 °F 33.8 °F 62% 30.15 in 10.0 mi North 19.6 mph 29.9 mph N/A   Mostly Cloudy
10:55 AM 48.2 °F - 33.8 °F 58% 30.16 in 10.0 mi NNW 19.6 mph 26.5 mph N/A   Overcast
11:15 AM 48.2 °F - 33.8 °F 58% 30.16 in 10.0 mi NNW 18.4 mph 28.8 mph N/A   Overcast
11:35 AM 46.4 °F 39.0 °F 33.8 °F 62% 30.16 in 10.0 mi North 19.6 mph 24.2 mph N/A   Overcast
11:55 AM 48.2 °F - 33.8 °F 58% 30.16 in 10.0 mi NNW 17.3 mph 24.2 mph N/A   Overcast
12:15 PM 48.2 °F - 33.8 °F 58% 30.15 in 10.0 mi North 18.4 mph 23.0 mph N/A   Overcast
12:35 PM 50.0 °F - 33.8 °F 54% 30.14 in 10.0 mi North 19.6 mph 26.5 mph N/A   Overcast
12:55 PM 50.0 °F - 33.8 °F 54% 30.13 in 10.0 mi NNW 18.4 mph 27.6 mph N/A   Overcast
1:15 PM 48.2 °F - 33.8 °F 58% 30.13 in 10.0 mi NNW 18.4 mph 23.0 mph N/A   Overcast
1:35 PM 50.0 °F - 33.8 °F 54% 30.13 in 10.0 mi NNW 19.6 mph 24.2 mph N/A   Overcast
1:55 PM 50.0 °F - 33.8 °F 54% 30.13 in 10.0 mi North 19.6 mph 26.5 mph N/A   Overcast
2:15 PM 50.0 °F - 33.8 °F 54% 30.13 in 10.0 mi North 17.3 mph - N/A   Overcast
2:35 PM 48.2 °F - 33.8 °F 58% 30.13 in 10.0 mi North 19.6 mph 23.0 mph N/A   Overcast
2:55 PM 48.2 °F - 33.8 °F 58% 30.12 in 10.0 mi North 16.1 mph 21.9 mph N/A   Overcast
3:15 PM 48.2 °F - 33.8 °F 58% 30.12 in 10.0 mi North 12.7 mph 18.4 mph N/A   Overcast
3:35 PM 48.2 °F - 33.8 °F 58% 30.12 in 10.0 mi North 15.0 mph 21.9 mph N/A   Overcast
3:55 PM 48.2 °F - 32.0 °F 54% 30.12 in 10.0 mi North 15.0 mph - N/A   Overcast
4:15 PM 48.2 °F - 33.8 °F 58% 30.13 in 10.0 mi NNW 12.7 mph 20.7 mph N/A   Overcast
4:35 PM 48.2 °F - 33.8 °F 58% 30.13 in 10.0 mi North 15.0 mph - N/A   Overcast
4:55 PM 48.2 °F - 32.0 °F 54% 30.13 in 10.0 mi North 11.5 mph - N/A   Overcast
5:15 PM 48.2 °F - 32.0 °F 54% 30.13 in 10.0 mi North 11.5 mph - N/A   Overcast
5:35 PM 46.4 °F 41.5 °F 32.0 °F 57% 30.14 in 10.0 mi North 10.4 mph - N/A   Overcast
5:55 PM 44.6 °F 40.2 °F 30.2 °F 57% 30.13 in 10.0 mi NNE 8.1 mph - N/A   Scattered Clouds
6:15 PM 42.8 °F 39.3 °F 30.2 °F 61% 30.13 in 10.0 mi NNE 5.8 mph - N/A   Clear
6:35 PM 42.8 °F 39.3 °F 30.2 °F 61% 30.14 in 10.0 mi NNE 5.8 mph - N/A   Clear
6:55 PM 41.0 °F 37.1 °F 30.2 °F 65% 30.14 in 10.0 mi NNE 5.8 mph - N/A   Clear
7:15 PM 39.2 °F 34.2 °F 30.2 °F 70% 30.14 in 10.0 mi North 6.9 mph - N/A   Clear
7:35 PM 39.2 °F 35.0 °F 30.2 °F 70% 30.15 in 10.0 mi NNE 5.8 mph - N/A   Clear
7:55 PM 39.2 °F 34.2 °F 28.4 °F 65% 30.15 in 10.0 mi NNE 6.9 mph - N/A   Clear
8:15 PM 39.2 °F 35.0 °F 30.2 °F 70% 30.15 in 10.0 mi NNE 5.8 mph - N/A   Clear
8:35 PM 39.2 °F 35.9 °F 30.2 °F 70% 30.14 in 10.0 mi NE 4.6 mph - N/A   Clear
8:55 PM 39.2 °F 37.0 °F 30.2 °F 70% 30.15 in 10.0 mi NE 3.5 mph - N/A   Clear
9:15 PM 39.2 °F - 30.2 °F 70% 30.14 in 10.0 mi Calm Calm - N/A   Clear
9:35 PM 39.2 °F - 30.2 °F 70% 30.14 in 10.0 mi Calm Calm - N/A   Clear
9:55 PM 37.4 °F 34.9 °F 30.2 °F 75% 30.13 in 10.0 mi ENE 3.5 mph - N/A   Clear
10:15 PM 37.4 °F 34.9 °F 30.2 °F 75% 30.13 in 10.0 mi East 3.5 mph - N/A   Clear
10:35 PM 35.6 °F 32.8 °F 28.4 °F 75% 30.12 in 10.0 mi East 3.5 mph - N/A   Clear
10:55 PM 35.6 °F 31.7 °F 28.4 °F 75% 30.12 in 10.0 mi East 4.6 mph - N/A   Clear
11:15 PM 35.6 °F 32.8 °F 30.2 °F 81% 30.12 in 10.0 mi East 3.5 mph - N/A   Mostly Cloudy
11:35 PM 37.4 °F 34.9 °F 32.0 °F 81% 30.12 in 10.0 mi East 3.5 mph - N/A   Overcast
11:55 PM 37.4 °F 34.9 °F 32.0 °F 81% 30.12 in 10.0 mi ESE 3.5 mph - N/A   Overcast